Weather History for Lubbock, TX

Change the Weather History Date:

Thursday, March 13, 2014

  Actual Average Record
Temperature  
Mean Temperature 45 °F 51 °F  
Max Temperature 66 °F 66 °F 91 °F (1916)
Min Temperature 24 °F 36 °F 12 °F (1950)
Degree Days  
Heating Degree Days 20 14  
Month to date heating degree days 203  
Since 1 July heating degree days 2942  
Cooling Degree Days 0 0  
Month to date cooling degree days 0  
Year to date cooling degree days 0  
Moisture  
Dew Point 12 °F    
Average Humidity 25    
Maximum Humidity 44    
Minimum Humidity 7    
Precipitation  
Precipitation 0.00 in 0.03 in 0.47 in (1937)
Month to date precipitation 0.42  
Year to date precipitation 1.82  
Snow  
Snow 0.00 in 0.00 in - ()
Month to date snowfall 0.3  
Since 1 July snowfall 7.7  
Snow Depth -    
Sea Level Pressure  
Sea Level Pressure 30.12 in    
Wind  
Wind Speed 9 mph (SW)    
Max Wind Speed 24 mph    
Max Gust Speed 30 mph    
Visibility 10 miles    
Events      
T = Trace of Precipitation, MM = Missing Value Source: NWS Daily Summary

Daily Weather History Graph

Daily Weather History Graph

Search for Another Location

Airport:

Trip Planner

Search our weather history database for the weather conditions in past years. The results will help you decide how hot, cold, wet, or windy it might be!

Date:

Astronomy

Mar. 13, 2014 Rise Set
Actual Time 8:00 AM CDT 7:53 PM CDT
Civil Twilight 7:35 AM CDT 8:18 PM CDT
Nautical Twilight 7:06 AM CDT 8:47 PM CDT
Astronomical Twilight 6:37 AM CDT 9:16 PM CDT
Moon 5:26 PM CDT (3/13) 6:01 AM CDT (3/13)
Length of Visible Light 12h 42m
Length of Day
11h 53m
Waxing Gibbous, 91% of the Moon is Illuminated
Mar 13
Waxing Gibbous
Mar 16
Full
Mar 23
Last Quarter
Mar 30
New
Apr 7
First Quarter

Hourly Weather History & Observations

Time (CDT) Temp. Windchill Dew Point Humidity Pressure Visibility Wind Dir Wind Speed Gust Speed Precip Events Conditions
12:53 AM 36.0 °F 33.3 °F 7.0 °F 30% 30.27 in 10.0 mi WSW 3.5 mph - N/A   Clear
1:53 AM 33.1 °F 27.7 °F 8.1 °F 35% 30.26 in 10.0 mi West 5.8 mph - N/A   Partly Cloudy
2:53 AM 30.9 °F 25.2 °F 9.0 °F 40% 30.25 in 10.0 mi WNW 5.8 mph - N/A   Clear
3:53 AM 28.9 °F 22.8 °F 8.1 °F 41% 30.24 in 10.0 mi WNW 5.8 mph - N/A   Clear
4:53 AM 28.9 °F 25.2 °F 7.0 °F 40% 30.22 in 10.0 mi WNW 3.5 mph - N/A   Clear
5:53 AM 27.0 °F 21.6 °F 6.1 °F 41% 30.22 in 10.0 mi WNW 4.6 mph - N/A   Clear
6:53 AM 26.1 °F 19.4 °F 5.0 °F 41% 30.23 in 10.0 mi West 5.8 mph - N/A   Clear
7:53 AM 24.1 °F 18.2 °F 5.0 °F 44% 30.25 in 10.0 mi WNW 4.6 mph - N/A   Partly Cloudy
8:53 AM 30.9 °F 27.5 °F 8.1 °F 38% 30.24 in 10.0 mi WNW 3.5 mph - N/A   Partly Cloudy
9:53 AM 41.0 °F 35.8 °F 10.9 °F 29% 30.24 in 10.0 mi WSW 8.1 mph - N/A   Partly Cloudy
10:53 AM 50.0 °F - 16.0 °F 26% 30.23 in 10.0 mi SW 10.4 mph - N/A   Mostly Cloudy
11:53 AM 55.9 °F - 15.1 °F 20% 30.19 in 10.0 mi SSW 16.1 mph - N/A   Scattered Clouds
12:53 PM 55.9 °F - 12.9 °F 18% 30.17 in 10.0 mi SW 15.0 mph - N/A   Mostly Cloudy
1:53 PM 61.0 °F - 14.0 °F 16% 30.12 in 10.0 mi South 15.0 mph 25.3 mph N/A   Scattered Clouds
2:53 PM 64.0 °F - 15.1 °F 15% 30.07 in 10.0 mi SSW 19.6 mph 27.6 mph N/A   Scattered Clouds
3:53 PM 64.9 °F - 15.1 °F 15% 30.01 in 9.0 mi South 23.0 mph 28.8 mph N/A   Partly Cloudy
4:53 PM 66.0 °F - 15.1 °F 14% 29.98 in 9.0 mi South 20.7 mph 29.9 mph N/A   Mostly Cloudy
5:53 PM 64.9 °F - 15.1 °F 15% 29.96 in 10.0 mi South 20.7 mph 28.8 mph N/A   Partly Cloudy
6:53 PM 64.0 °F - 16.0 °F 16% 29.94 in 10.0 mi South 24.2 mph 29.9 mph N/A   Clear
7:53 PM 60.1 °F - 17.1 °F 19% 29.94 in 10.0 mi South 16.1 mph - N/A   Clear
8:53 PM 57.0 °F - 17.1 °F 21% 29.93 in 10.0 mi South 13.8 mph - N/A   Clear
9:53 PM 55.0 °F - 18.0 °F 23% 29.92 in 10.0 mi South 15.0 mph - N/A   Clear
10:53 PM 54.0 °F - 19.0 °F 25% 29.91 in 10.0 mi South 16.1 mph - N/A   Clear
11:53 PM 53.1 °F - 21.0 °F 29% 29.91 in 10.0 mi SSW 18.4 mph - N/A   Partly Cloudy